CZ-6A DEB, 54414

Orbit data source: Space-Track

CZ-6A DEB, 54414 is space debris in SSO originally from a launch on Fri, 11 Nov 2022 UTC launched from the Taiyaun Space Center, China (TSC). Debris objects in space refer to the collection of defunct objects orbiting the Earth. Examples of debris include non-operational satellites, rocket bodies, and fragments generated from explosions, collisions, or faulty payload assembly.

Loading next visibility...
Identifier
54414, 2022-151EN
Orbit
SSO
Country
Flag of CNCN / PRC
Related business
Manufacturer
SAST
Mission
Spacecraft
Bus & Motor
Unknown
Mass
Unknown
Launch date (UTC)
2022-11-11 (4 years ago)
Launch vehicle
Unknown
Launch site
Taiyaun Space Center, China (TSC)
Object type
Payload
Rocket body
Debris
Shape & HBR
Unknown shape, 0.1 m
Radar Cross Section
Medium (>0.1 m² and <1 m²)

Expand to show TLE details & history
Last TLE update: 7 hours ago

TLE from 7 hours ago
0 CZ-6A DEB
1 54414U 22151EN  26236.39792750 -.00000240  00000-0 -13246-3 0  9997
2 54414  98.9621 212.9101 0116573 240.8238 118.1221 13.96984003192237
Epoch: 2026-08-24T09:33Z
TLE epoch observation values (Epoch: 2026-08-24T09:33:00.936Z)
Latitude
-0.00007°
Longitude
96.97601°
Altitude
947.918 km
Speed
7.357 km/s
True Right ascension
14h 11m 38s
True Declination
0° 00' 00"
Sunlit
Object was in daylight at epoch
Visualization orbit readout
Latitude
Unknown
Longitude
Unknown
Altitude
Unknown
Speed
Unknown
Apparent Right ascension
Unknown
Apparent Declination
Unknown
Sunlit
N/A
Visualization observer readout
Local Sidereal Time
07:26:37
Azimuth
Unknown
Elevation
Unknown
Doppler factor
Unknown
Orbital elements
Apogee altitude
986.319 km
Perigee altitude
816.598 km
Semi-major axis
7,279.596 km
Eccentricity
0.01166
Inclination
98.9621°
RAAN
212.9101°
Arg. of periapsis
240.8238°
True anomaly
119.29211°
Mean anomaly
118.1221°
Eccentric anomaly
118.70791°
Mean motion
3.49448 °/min
Orbital period
103.02 mins
BSTAR
-0.00013246
Loading maneuver chart data...
Computing Atmospheric mass density...
Loading historical data...
Loading historical data...
Loading historical data...
Loading historical data...
Loading historical data...
Loading historical data...
Loading historical data...

Documentation

Showing up to 5 results
|